This demonstration page uses our WeatherBlox Daily Observations layout. Learn more.

Left ArrowRight Arrow

Hourly Observations for March 9, 2017

Temp ( °F °C ) Dew Point ( °F °C ) Humidity (%) Winds ( mph kmh ) Pressure ( in mb ) Visibility ( mi km ) Precip ( " mm )
12:53 am 00:53 Clear 36 2.2 29 -1.7 76 76 N N/A 30.2 1023 10 16.0934 N/A
1:53 am 01:53 Clear 35 1.7 30 -1.1 82 82 N N/A 30.2 1023 10 16.0934 N/A
2:53 am 02:53 Clear 33 0.6 30 -1.1 89 89 N N/A 30.19 1022 10 16.0934 N/A
3:53 am 03:53 Clear 33 0.6 28 -2.2 82 82 N 3 6 30.18 1022 10 16.0934 N/A
4:53 am 04:53 Clear 33 0.6 28 -2.2 82 82 N N/A 30.18 1022 10 16.0934 N/A
5:53 am 05:53 Clear 31 -0.6 28 -2.2 89 89 N N/A 30.18 1022 10 16.0934 N/A
6:53 am 06:53 Clear 31 -0.6 28 -2.2 89 89 N N/A 30.19 1022 10 16.0934 N/A
7:53 am 07:53 Sunny 34 1.1 30 -1.1 85 85 N N/A 30.18 1022 10 16.0934 N/A
8:53 am 08:53 Sunny 47 8.3 31 -0.6 54 54 N N/A 30.19 1022 10 16.0934 N/A
9:53 am 09:53 Sunny 52 11.1 32 undefined 47 47 N N/A 30.18 1022 10 16.0934 N/A
10:53 am 10:53 Sunny 58 14.4 32 undefined 38 38 W 6 9 30.16 1021 10 16.0934 N/A
11:53 am 11:53 Sunny 61 16.1 32 undefined 34 34 WSW 8 13 30.14 1021 10 16.0934 N/A
12:53 pm 12:53 Sunny 64 17.8 33 0.6 32 32 WSW 10 17 30.09 1019 10 16.0934 N/A
1:53 pm 13:53 Sunny 67 19.4 35 1.7 31 31 WSW 7 11 30.04 1017 10 16.0934 N/A
2:53 pm 14:53 Sunny 70 21.1 34 1.1 27 27 WSW 16 26 30.01 1016 10 16.0934 N/A
3:53 pm 15:53 Sunny 70 21.1 35 1.7 28 28 WSW 14 22 29.98 1015 10 16.0934 N/A
4:53 pm 16:53 Sunny 69 20.6 35 1.7 29 29 WSW 9 15 29.96 1015 10 16.0934 N/A
5:53 pm 17:53 Partly Cloudy 64 17.8 40 4.4 41 41 WNW 6 9 29.95 1014 10 16.0934 N/A
6:53 pm 18:53 Cloudy 62 16.7 40 4.4 44 44 N 15 24 29.98 1015 10 16.0934 N/A
7:06 pm 19:06 Cloudy 59 15 39 3.9 48 48 N 10 17 29.97 1015 10 16.0934 N/A
7:53 pm 19:53 Mostly Cloudy 56 13.3 34 1.1 44 44 N 9 15 29.99 1016 10 16.0934 N/A
8:53 pm 20:53 Cloudy 54 12.2 30 -1.1 40 40 N 9 15 30.03 1017 10 16.0934 N/A
9:53 pm 21:53 Cloudy 50 10 26 -3.3 39 39 NNE 16 26 30.02 1017 10 16.0934 N/A
10:53 pm 22:53 Cloudy with Rain 43 6.1 33 0.6 68 68 NNE 15 24 30.04 1017 6 9.65604 0.03 0.762
11:53 pm 23:53 Cloudy with Light Rain 40 4.4 36 2.2 86 86 NNE 6 9 30.02 1017 7 11.26538 0.12 3.048

Powered by AerisWeather